User: anonymous   Login
Location: Unspecified
(0.0000°N, 0.0000°E)
Time: 11:49:04
(UTC+00:00)
Language:

USA 187 - Orbit

View from above orbital plane
View from above orbital plane
View from above satellite
View from above satellite

Ground track
Ground track

The orbit data is extracted from the following two-line orbital elements,

1 29240U 06024A   20032.90448882 0.00000000  00000-0  00000-0 0    02
2 29240   2.7542  80.4088 0013443 198.2432 161.7205  0.98610274    00
Epoch (UTC): 01 February 2020 21:42:27
Eccentricity: 0.0013443
inclination: 2.7542°
perigee height: 36201 km
apogee height: 36316 km
right ascension of ascending node: 80.4088°
argument of perigee: 198.2432°
revolutions per day: 0.98610274
mean anomaly at epoch: 161.7205°
orbit number at epoch: 0

The dashed part of the orbit path shows where the satellite is in the earth's shadow,  

DLR